[[{"header":{"parameterUnit":"m.s-1","parameterCategory":1,"la1":30.2991,"la2":30.254,"lo1":-89.0895,"lo2":-89.0444,"dy":0.0017,"dx":0.0017,"nx":28,"ny":28,"refTime":"2025-01-15T03:00:00:Z","depth":0,"parameterNumber":2,"parameterNumberName":"U-component_of_WINDS"},"data":[0,0,0,0,0,0,0,0,0,0,0,0,0,0,0,0,0,0,0,0,0,0,0,0,0,0,0,0,0,0,0,0,0,0,0,0,0,0,0,0,0,0,0,0,0,0,0,0,0,0,0,0,0,0,0,0,0,0,-1.8923,-1.8923,0,-1.892,-1.892,-1.892,-1.8835,-1.8833,-1.883,-1.8828,-1.8828,-1.883,-1.8832,0,0,0,0,0,0,0,0,0,0,0,0,0,-1.8858,-1.886,-1.8923,-1.8923,-1.8923,-1.892,-1.892,-1.892,-1.8835,-1.8832,-1.883,-1.8827,-1.8827,-1.883,-1.8832,0,0,0,0,0,0,0,0,0,0,0,0,0,-1.8874,-1.886,-1.8923,-1.888,-1.8877,-1.892,-1.892,-1.892,-1.8836,-1.8832,-1.8829,-1.8826,-1.8826,-1.8829,-1.8833,-1.8918,0,0,-1.8842,-1.8843,0,0,0,0,0,0,0,0,-1.8873,-1.8877,-1.8887,-1.8884,-1.8879,-1.8874,-1.8897,-1.8919,-1.8837,-1.8851,-1.8828,-1.8824,-1.8846,-1.8848,-1.8854,-1.8918,-1.8918,-1.8842,-1.8844,-1.8845,-1.8846,0,0,0,0,0,0,0,-1.8872,-1.8876,-1.8922,-1.8887,-1.8883,-1.8862,-1.8861,-1.8901,-1.8868,-1.885,-1.8844,-1.8844,-1.8844,-1.8852,-1.8854,-1.8918,-1.8842,-1.8845,-1.8847,-1.8848,-1.9051,-1.9054,0,0,0,0,0,0,-1.8877,-1.8876,-1.8922,-1.8922,-1.8868,-1.8866,-1.8864,-1.8879,-1.8867,-1.8862,-1.8847,-1.884,-1.8848,-1.885,-1.8853,-1.8953,-1.8845,-1.8848,-1.885,-1.9047,-1.9052,-1.9055,0,0,0,0,0,0,-1.8876,-1.8882,-1.8922,-1.8897,-1.8901,-1.8871,-1.8888,-1.8881,-1.8889,-1.8865,-1.8859,-1.8861,-1.8845,-1.8849,-1.8902,-1.8951,-1.885,-1.8852,-1.9043,-1.9049,-1.9054,-1.9152,0,0,0,0,0,0,-1.8874,-1.8882,-1.8914,-1.8899,-1.8903,-1.8971,-1.8891,-1.8883,-1.8894,-1.8885,-1.8876,-1.8872,-1.8843,-1.8898,-1.8905,-1.8954,-1.8855,-1.9039,-1.9046,-1.9052,-1.9144,-1.916,-1.9174,0,0,0,0,0,-1.8872,-1.8942,-1.8916,-1.8922,-1.8942,-1.8974,-1.8976,-1.8941,-1.8898,-1.893,-1.8915,-1.8872,-1.8944,-1.8904,-1.8912,-1.8962,-1.9035,-1.9044,-1.9051,-1.9138,-1.9157,-1.9173,0,0,0,0,0,0,-1.8966,-1.894,-1.891,-1.8977,-1.8978,-1.896,-1.8999,-1.8963,-1.8977,-1.8968,-1.8924,-1.8923,-1.8984,-1.8977,-1.8933,-1.9044,-1.8982,-1.8992,-1.9046,-1.9064,-1.9078,-1.9079,-1.8857,0,0,0,0,0,-1.8994,-1.9021,-1.8997,-1.9059,-1.9061,-1.903,-1.9043,-1.9015,-1.9015,-1.9016,-1.9004,-1.9007,-1.9029,-1.9046,-1.9066,-1.9142,-1.914,-1.918,-1.9195,-1.9207,-1.9217,-1.9257,-1.9275,-1.9082,-1.9082,-1.9081,0,0,-1.9053,-1.9042,-1.9062,-1.9078,-1.9075,-1.9106,-1.9031,-1.9067,-1.9089,-1.9022,-1.9071,-1.9062,-1.9062,-1.9127,-1.9155,-1.9124,-1.9269,-1.9217,-1.9227,-1.923,-1.9267,-1.9285,-1.9302,-1.9087,-1.9086,-1.9085,0,0,-1.9176,-1.917,-1.9221,-1.922,-1.9216,-1.9195,-1.9207,-1.9194,-1.9185,-1.9234,-1.9183,-1.9209,-1.925,-1.9252,-1.9258,-1.9381,-1.9342,-1.9388,-1.9466,-1.9505,-1.9521,-1.9534,-1.9578,-1.9595,-1.9398,-1.9398,-1.9398,0,-1.925,-1.9293,-1.9252,-1.929,-1.9299,-1.9237,-1.9288,-1.9289,-1.9294,-1.9301,-1.9266,-1.9315,-1.9311,-1.9375,-1.9405,-1.9412,-1.9425,-1.939,-1.9521,-1.9534,-1.9546,-1.9588,-1.9605,-1.9404,-1.9403,-1.9402,-1.9402,0,-1.9385,-1.9416,-1.9457,-1.9461,-1.9474,-1.9519,-1.9485,-1.9503,-1.9474,-1.9456,-1.9506,-1.9498,-1.9516,-1.9528,-1.9501,-1.959,-1.957,-1.9529,-1.9467,-1.9571,-1.961,-1.9626,-1.9412,-1.941,-1.9408,-1.9407,0,0,-1.9569,-1.9548,-1.9565,-1.9566,-1.9557,-1.958,-1.9622,-1.9637,-1.9654,-1.9658,-1.9693,-1.9728,-1.9689,-1.9697,-1.9668,-1.9703,-1.9801,-1.9657,-1.9656,-1.9685,-1.9899,-1.9932,-1.9951,-1.9775,-1.9778,-1.978,-1.99,0,-1.9689,-1.9759,-1.9722,-1.9797,-1.9825,-1.9766,-1.9803,-1.9802,-1.9786,-1.9808,-1.9791,-1.9817,-1.9763,-1.9767,-1.9799,-1.9783,-1.9844,-1.9773,-1.9808,-1.981,-1.9812,-1.9971,-2.0005,-2.0119,-1.9914,-1.9917,-1.9919,0,-1.9839,-1.9849,-1.9926,-1.9911,-1.9922,-1.9955,-1.9966,-1.9988,-1.9985,-1.9971,-1.9979,-1.9942,-1.9983,-1.992,-1.9975,-1.9928,-1.994,-1.9934,-1.9938,-1.9941,-1.9872,-1.998,-2.0154,-2.0172,-1.9942,-1.994,-1.9938,0,-1.9967,-1.9999,-2.005,-2.0052,-2.0036,-2.0061,-2.0055,-2.0049,-2.0061,-2.007,-2.0078,-2.0092,-2.0101,-2.0113,-2.0082,-2.0039,-2.0142,-2.0077,-2.0133,-2.0134,-2.0159,-2.0158,-2.0339,-2.0164,-2.0164,-2.0164,-2.0163,0,-2.0106,-2.0156,-2.0107,-2.0138,-2.0192,-2.0149,-2.0205,-2.0193,-2.0188,-2.0216,-2.0166,-2.0194,-2.0149,-2.0173,-2.0148,-2.0199,-2.0203,-2.0194,-2.0187,-2.0199,-2.0201,-2.0208,-2.0199,-2.0168,-2.0167,-2.0166,-2.0166,0,-2.0259,-2.0228,-2.0279,-2.0259,-2.0255,-2.0296,-2.0279,-2.0307,-2.0287,-2.0324,-2.033,-2.0299,-2.0325,-2.0293,-2.0316,-2.03,-2.0368,-2.0349,-2.0369,-2.0364,-2.0423,-2.0419,-2.0616,-2.064,-2.0449,-2.0451,-2.0452,0,-2.0351,-2.0387,-2.0371,-2.0385,-2.0382,-2.0407,-2.0418,-2.0377,-2.039,-2.0389,-2.0418,-2.0439,-2.0453,-2.0496,-2.0477,-2.0494,-2.0475,-2.0543,-2.0478,-2.0489,-2.0478,-2.0477,-2.0481,-2.0557,-2.056,-2.0562,-2.0563,0,-2.0517,-2.0499,-2.0516,-2.0528,-2.0542,-2.055,-2.0553,-2.0569,-2.0525,-2.0543,-2.0568,-2.0579,-2.0601,-2.0622,-2.0634,-2.0629,-2.059,-2.0583,-2.0598,-2.0612,-2.0622,-2.0618,-2.0407,-2.058,-2.0578,-2.0577,-2.0576,-2.0575,-2.0642,-2.0672,-2.0665,-2.0686,-2.0684,-2.0688,-2.0714,-2.0696,-2.0716,-2.073,-2.0704,-2.0735,-2.0731,-2.0742,-2.0741,-2.0765,-2.0736,-2.0757,-2.0762,-2.0768,-2.0778,-2.0617,-2.0767,-2.0767,-2.0766,-2.0766,-2.0765,0,-2.0807,-2.0799,-2.0818,-2.0824,-2.0841,-2.08,-2.0801,-2.0818,-2.0846,-2.0845,-2.0859,-2.0887,-2.0908,-2.0889,-2.0905,-2.0928,-2.0911,-2.0934,-2.0933,-2.0933,-2.0802,-2.0789,-2.0948,-2.0948,-2.0948,-2.0948,-2.0948,-2.0948,-2.0895,-2.0943,-2.0924,-2.0972,-2.0963,-2.0992,-2.0997,-2.1001,-2.0999,-2.1033,-2.1049,-2.1035,-2.1027,-2.1043,-2.1059,-2.1053,-2.1062,-2.1093,-2.1081,-2.096,-2.0942,-2.0925,-2.0912,-2.1095,-2.1095,-2.1209,-2.121,-2.1211]},{"header":{"parameterUnit":"m.s-1","parameterCategory":1,"la1":30.2991,"la2":30.254,"lo1":-89.0895,"lo2":-89.0444,"dy":0.0017,"dx":0.0017,"nx":28,"ny":28,"refTime":"2025-01-15T03:00:00:Z","depth":0,"parameterNumber":3,"parameterNumberName":"V-component_of_WINDS"},"data":[0,0,0,0,0,0,0,0,0,0,0,0,0,0,0,0,0,0,0,0,0,0,0,0,0,0,0,0,0,0,0,0,0,0,0,0,0,0,0,0,0,0,0,0,0,0,0,0,0,0,0,0,0,0,0,0,0,0,-2.5711,-2.5711,0,-2.5758,-2.5759,-2.5759,-2.5712,-2.571,-2.5708,-2.5706,-2.5752,-2.5755,-2.5758,0,0,0,0,0,0,0,0,0,0,0,0,0,-2.5577,-2.558,-2.5711,-2.5712,-2.5712,-2.5758,-2.5759,-2.5759,-2.5712,-2.571,-2.5708,-2.5706,-2.5751,-2.5755,-2.5759,0,0,0,0,0,0,0,0,0,0,0,0,0,-2.5631,-2.5581,-2.5711,-2.5694,-2.5693,-2.5758,-2.5759,-2.576,-2.5713,-2.571,-2.5707,-2.5704,-2.575,-2.5755,-2.5759,-2.5842,0,0,-2.5773,-2.5774,0,0,0,0,0,0,0,0,-2.5628,-2.5636,-2.5696,-2.5695,-2.5694,-2.5726,-2.5728,-2.5787,-2.5713,-2.5705,-2.5706,-2.5703,-2.5746,-2.575,-2.5765,-2.5844,-2.5846,-2.5773,-2.5776,-2.5778,-2.5779,0,0,0,0,0,0,0,-2.5624,-2.5633,-2.5729,-2.5697,-2.5696,-2.5683,-2.5688,-2.5739,-2.574,-2.5706,-2.5702,-2.5709,-2.5745,-2.5761,-2.5766,-2.5847,-2.5773,-2.5777,-2.5779,-2.5781,-2.5995,-2.5998,0,0,0,0,0,0,-2.5623,-2.5631,-2.5728,-2.5731,-2.5654,-2.5688,-2.5693,-2.5719,-2.574,-2.574,-2.5711,-2.5706,-2.5755,-2.5761,-2.5768,-2.5866,-2.5777,-2.5782,-2.5784,-2.5992,-2.5996,-2.5999,0,0,0,0,0,0,-2.562,-2.5632,-2.5726,-2.568,-2.5691,-2.5693,-2.5723,-2.5721,-2.5738,-2.5744,-2.5744,-2.5728,-2.5753,-2.5761,-2.5824,-2.5867,-2.5784,-2.5788,-2.5988,-2.5993,-2.5997,-2.6063,0,0,0,0,0,0,-2.5616,-2.5631,-2.5663,-2.5681,-2.5694,-2.5783,-2.5725,-2.5724,-2.5746,-2.574,-2.5759,-2.576,-2.5751,-2.5817,-2.5828,-2.5871,-2.5791,-2.5984,-2.599,-2.5996,-2.6057,-2.6069,-2.608,0,0,0,0,0,-2.5612,-2.568,-2.5665,-2.5677,-2.5734,-2.5785,-2.5792,-2.5782,-2.5749,-2.5781,-2.5785,-2.5759,-2.586,-2.5824,-2.5836,-2.5881,-2.5982,-2.5989,-2.5995,-2.6052,-2.6067,-2.6079,0,0,0,0,0,0,-2.5666,-2.5682,-2.5666,-2.5742,-2.5763,-2.5777,-2.5817,-2.5798,-2.5828,-2.5821,-2.5806,-2.5811,-2.5877,-2.5885,-2.5845,-2.5962,-2.5915,-2.5925,-2.5955,-2.5969,-2.598,-2.5977,-2.5795,0,0,0,0,0,-2.5687,-2.5728,-2.5739,-2.5805,-2.5816,-2.5815,-2.5837,-2.5827,-2.5848,-2.5856,-2.5865,-2.5885,-2.5921,-2.5945,-2.5979,-2.6058,-2.6061,-2.6094,-2.6106,-2.6115,-2.6123,-2.6165,-2.618,-2.6021,-2.6021,-2.6021,0,0,-2.5731,-2.5744,-2.5771,-2.5816,-2.5831,-2.5873,-2.5823,-2.5869,-2.59,-2.5863,-2.5923,-2.593,-2.5951,-2.6022,-2.6054,-2.6031,-2.6168,-2.6124,-2.6131,-2.6134,-2.6174,-2.6189,-2.6202,-2.6026,-2.6025,-2.6024,0,0,-2.5832,-2.5846,-2.5903,-2.5919,-2.5942,-2.5941,-2.5955,-2.5972,-2.5975,-2.6035,-2.6008,-2.6044,-2.6106,-2.6123,-2.6139,-2.6246,-2.6223,-2.6257,-2.6316,-2.6357,-2.637,-2.6381,-2.6419,-2.6433,-2.6265,-2.6266,-2.6266,0,-2.5883,-2.5946,-2.5934,-2.5983,-2.6003,-2.5972,-2.6028,-2.6044,-2.6077,-2.6091,-2.6065,-2.6143,-2.6155,-2.623,-2.6256,-2.627,-2.6284,-2.6255,-2.6369,-2.638,-2.639,-2.6426,-2.6441,-2.627,-2.6269,-2.6269,-2.6268,0,-2.6007,-2.6051,-2.6094,-2.6128,-2.6153,-2.6205,-2.62,-2.6226,-2.6214,-2.6215,-2.6276,-2.629,-2.6325,-2.6342,-2.633,-2.6415,-2.64,-2.6372,-2.6325,-2.641,-2.6443,-2.6457,-2.6275,-2.6274,-2.6273,-2.6272,0,0,-2.6145,-2.6171,-2.6187,-2.6201,-2.6225,-2.6258,-2.6308,-2.6344,-2.6367,-2.639,-2.6432,-2.6485,-2.646,-2.6478,-2.6468,-2.6504,-2.6587,-2.6471,-2.6472,-2.6493,-2.6681,-2.6702,-2.6718,-2.6572,-2.6575,-2.6577,-2.6679,0,-2.6246,-2.6335,-2.6325,-2.641,-2.645,-2.642,-2.6464,-2.6482,-2.6485,-2.6518,-2.652,-2.6558,-2.6521,-2.6532,-2.6567,-2.657,-2.6625,-2.6562,-2.661,-2.6612,-2.6606,-2.6736,-2.6758,-2.6854,-2.6692,-2.6694,-2.6696,0,-2.6377,-2.6406,-2.6495,-2.6512,-2.6528,-2.6568,-2.6599,-2.6632,-2.6652,-2.6651,-2.6672,-2.6655,-2.6704,-2.6656,-2.6724,-2.6682,-2.67,-2.6705,-2.6708,-2.6713,-2.6659,-2.6744,-2.6884,-2.6899,-2.6716,-2.6714,-2.6713,0,-2.6469,-2.653,-2.659,-2.6604,-2.6625,-2.6654,-2.6663,-2.6681,-2.6703,-2.673,-2.6743,-2.6776,-2.6794,-2.6818,-2.681,-2.6776,-2.688,-2.6831,-2.688,-2.688,-2.6903,-2.6902,-2.705,-2.6915,-2.6915,-2.6915,-2.6914,0,-2.6584,-2.6639,-2.6632,-2.6669,-2.673,-2.6718,-2.6778,-2.6784,-2.6799,-2.6836,-2.6812,-2.6848,-2.6835,-2.6869,-2.6863,-2.6919,-2.6927,-2.6928,-2.6925,-2.693,-2.693,-2.6943,-2.6936,-2.6918,-2.6918,-2.6917,-2.6916,0,-2.6696,-2.6694,-2.6758,-2.6773,-2.6778,-2.6822,-2.6834,-2.6869,-2.6869,-2.6916,-2.6927,-2.6926,-2.6965,-2.696,-2.7003,-2.6999,-2.707,-2.7059,-2.7063,-2.7061,-2.711,-2.7106,-2.7271,-2.7292,-2.7144,-2.7145,-2.7146,0,-2.677,-2.6812,-2.6831,-2.6855,-2.6867,-2.6906,-2.6928,-2.6917,-2.6941,-2.6966,-2.6998,-2.7035,-2.7064,-2.7128,-2.7131,-2.7163,-2.7154,-2.7209,-2.7158,-2.7162,-2.7155,-2.7153,-2.7157,-2.7219,-2.7221,-2.7223,-2.7224,0,-2.6901,-2.6898,-2.6931,-2.6965,-2.6992,-2.7018,-2.704,-2.7061,-2.7052,-2.708,-2.712,-2.7142,-2.7187,-2.7223,-2.7254,-2.7263,-2.7242,-2.724,-2.7253,-2.7258,-2.7259,-2.7259,-2.7091,-2.7236,-2.7235,-2.7234,-2.7233,-2.7233,-2.6997,-2.7033,-2.7052,-2.709,-2.7106,-2.7128,-2.7161,-2.7165,-2.7199,-2.7235,-2.7226,-2.7271,-2.7289,-2.7328,-2.734,-2.7375,-2.7354,-2.7373,-2.7378,-2.7383,-2.7389,-2.7253,-2.738,-2.738,-2.7379,-2.7379,-2.7379,0,-2.7127,-2.7138,-2.7173,-2.7206,-2.7236,-2.7214,-2.7237,-2.7263,-2.7304,-2.7323,-2.7352,-2.7398,-2.7433,-2.7439,-2.7472,-2.7499,-2.749,-2.7508,-2.7506,-2.7509,-2.7405,-2.7391,-2.7515,-2.7515,-2.7515,-2.7515,-2.7515,-2.7515,-2.7198,-2.7258,-2.7256,-2.7323,-2.7333,-2.7378,-2.7394,-2.7413,-2.7428,-2.7481,-2.751,-2.7514,-2.7527,-2.7562,-2.7593,-2.7593,-2.7607,-2.7629,-2.7626,-2.753,-2.7516,-2.7503,-2.7489,-2.7632,-2.7632,-2.7726,-2.7727,-2.7728]}]]